Tracking 19644 objects as of 25-Apr-2019
HD Live streaming from Space Station
objects crossing your sky now

CHINASAT 20

Track CHINASAT 20 now!
CHINASAT 20 is classified as:


NORAD ID: 28082
Int'l Code: 2003-052A
Perigee: 36,104.9 km
Apogee: 36,137.4 km
Inclination: 4.9 °
Period: 1,452.9 minutes
Semi major axis: 42492 km
RCS: 12.5893 m2 (large)
Launch date: November 14, 2003
Source: People's Republic of China (PRC)
Launch site: Xichang Space Center, China (XSC)

Dedicated military communications satellite.
aabbcc
Your satellite tracking list
Your tracking list is empty




NASA's NSSDC Master Catalog

Two Line Element Set (TLE):
1 28082U 03052A   19114.78440726 -.00000294  00000-0  00000+0 0  9999
2 28082   4.8504  68.2309 0003819 344.5793 236.2469  0.99115066 56524
Source of the keplerian elements: AFSPC